CW6120 Weather Reports


Display with metric or nautical units.
time (UTC)temp
F
wind
direction
speed
MPH
gust
MPH
rain 1hr
in
rain 24hr
in
rain mn
in
humidity
%
barometer
mb
20260503040329 52 56 3.0 7.0 0.00 0.02 0.02 76 1017.2
20260503035820 52 59 3.0 7.0 0.00 0.02 0.02 78 1017.3
20260503035331 52 59 0.0 3.0 0.00 0.02 0.02 78 1017.3
20260503034822 53 59 1.0 6.0 0.00 0.02 0.02 76 1017.4
20260503034314 53 26 1.0 4.0 0.00 0.02 0.02 75 1017.3
20260503033823 53 24 2.0 9.0 0.00 0.02 0.02 72 1017.3
20260503033331 52 10 5.0 9.0 0.00 0.02 0.02 71 1016.9
20260503032840 52 333 1.0 5.0 0.00 0.02 0.02 74 1016.9
20260503032328 52 333 1.0 5.0 0.00 0.02 0.02 75 1016.7
20260503031819 52 333 2.0 4.0 0.00 0.02 0.02 77 1016.4
20260503031332 53 333 0.0 4.0 0.00 0.02 0.02 77 1016.2
20260503030823 53 333 0.0 4.0 0.00 0.02 0.02 76 1016.2
20260503030334 53 333 2.0 6.0 0.00 0.02 0.02 74 1016.1
20260503025824 53 333 3.0 6.0 0.00 0.02 0.02 74 1016.0
20260503025335 53 333 3.0 6.0 0.00 0.02 0.02 75 1015.9
20260503024844 53 333 4.0 6.0 0.00 0.02 0.02 76 1016.2
20260503024332 53 333 4.0 6.0 0.00 0.02 0.02 76 1016.0
20260503023822 53 333 3.0 9.0 0.00 0.02 0.02 76 1016.3
20260503023329 53 333 3.0 9.0 0.00 0.02 0.02 75 1016.0
20260503022820 53 336 3.0 5.0 0.00 0.02 0.02 74 1016.0
20260503022351 53 338 3.0 5.0 0.00 0.02 0.02 75 1016.2
20260503021819 54 340 2.0 4.0 0.00 0.02 0.02 75 1016.2
20260503021331 54 342 2.0 3.0 0.00 0.02 0.02 74 1016.1
20260503020823 54 342 1.0 8.0 0.00 0.02 0.02 72 1015.9
20260503020316 54 342 4.0 8.0 0.01 0.02 0.02 70 1016.0
20260503015826 54 343 4.0 10.0 0.02 0.02 0.02 69 1016.0
20260503015319 54 343 6.0 10.0 0.02 0.02 0.02 69 1015.9
20260503014830 55 347 5.0 11.0 0.02 0.02 0.02 68 1015.9
20260503014322 54 348 5.0 11.0 0.02 0.02 0.02 68 1015.5
20260503013834 54 348 5.0 11.0 0.02 0.02 0.02 72 1015.6
20260503013323 54 345 3.0 8.0 0.02 0.02 0.02 74 1015.9
20260503012812 53 344 3.0 10.0 0.02 0.02 0.02 74 1016.2
20260503012349 53 348 6.0 10.0 0.02 0.02 0.02 75 1016.4
20260503011837 54 89 4.0 10.0 0.02 0.02 0.02 75 1016.7
20260503011331 54 131 1.0 4.0 0.02 0.02 0.02 72 1016.9
20260503010821 55 131 0.0 11.0 0.02 0.02 0.02 71 1016.9
20260503010345 56 131 1.0 12.0 0.01 0.01 0.01 66 1017.1
20260503005816 57 129 3.0 14.0 0.00 0.00 0.00 63 1017.3
20260503005327 59 119 5.0 14.0 0.00 0.00 0.00 59 1017.3
20260503004819 60 57 3.0 17.0 0.00 0.00 0.00 53 1016.9
20260503004352 60 58 1.0 17.0 0.00 0.00 0.00 50 1016.3
20260503003819 60 38 7.0 12.0 0.00 0.00 0.00 48 1015.9
20260503003328 60 23 5.0 12.0 0.00 0.00 0.00 48 1015.6
20260503002819 60 51 3.0 12.0 0.00 0.00 0.00 50 1015.5
20260503002356 60 24 0.0 4.0 0.00 0.00 0.00 53 1015.1
20260503001844 60 24 2.0 5.0 0.00 0.00 0.00 50 1015.0
20260503001332 60 24 1.0 5.0 0.00 0.00 0.00 51 1014.9
20260503000822 61 24 3.0 9.0 0.00 0.00 0.00 52 1015.2
20260503000312 61 24 3.0 9.0 0.00 0.00 0.00 49 1015.1
20260502235851 61 5 3.0 8.0 0.00 0.00 0.00 50 1014.9
20260502235321 62 360 4.0 9.0 0.00 0.00 0.00 48 1015.0
20260502234828 62 355 4.0 10.0 0.00 0.00 0.00 42 1014.8
20260502234338 62 342 5.0 10.0 0.00 0.00 0.00 42 1014.6
20260502233828 63 340 3.0 11.0 0.00 0.00 0.00 43 1014.6
20260502233318 63 340 3.0 11.0 0.00 0.00 0.00 41 1014.5
20260502232829 63 344 6.0 12.0 0.00 0.00 0.00 41 1014.5
20260502232319 64 333 6.0 12.0 0.00 0.00 0.00 41 1014.6
20260502231830 64 340 5.0 10.0 0.00 0.00 0.00 40 1014.5
20260502231319 64 336 7.0 10.0 0.00 0.00 0.00 40 1014.7
20260502230827 65 338 4.0 10.0 0.00 0.00 0.00 40 1014.8
20260502230317 65 340 6.0 11.0 0.00 0.00 0.00 39 1014.8
20260502225826 65 326 6.0 13.0 0.00 0.00 0.00 39 1014.8
20260502225319 65 321 7.0 13.0 0.00 0.00 0.00 39 1014.7
20260502224827 65 310 3.0 13.0 0.00 0.00 0.00 39 1014.9
20260502224315 66 248 6.0 13.0 0.00 0.00 0.00 37 1014.9
20260502223853 66 168 4.0 9.0 0.00 0.00 0.00 35 1015.0
20260502223323 67 164 5.0 7.0 0.00 0.00 0.00 35 1014.9
20260502222832 67 164 1.0 8.0 0.00 0.00 0.00 31 1015.0
20260502222321 67 164 2.0 8.0 0.00 0.00 0.00 30 1015.0
20260502221830 67 164 2.0 8.0 0.00 0.00 0.00 30 1015.0
20260502221320 67 164 5.0 10.0 0.00 0.00 0.00 29 1015.0
20260502220828 67 164 6.0 10.0 0.00 0.00 0.00 29 1015.1
20260502220318 67 163 3.0 10.0 0.00 0.00 0.00 29 1015.1
20260502215831 68 163 5.0 14.0 0.00 0.00 0.00 28 1015.2
20260502215323 68 163 8.0 14.0 0.00 0.00 0.00 29 1015.4
20260502214829 68 157 7.0 11.0 0.00 0.00 0.00 30 1015.5
20260502214317 69 155 5.0 11.0 0.00 0.00 0.00 30 1015.5
20260502213827 69 159 5.0 12.0 0.00 0.00 0.00 30 1015.5
20260502213315 69 161 5.0 12.0 0.00 0.00 0.00 30 1015.5
20260502212822 68 163 4.0 10.0 0.00 0.00 0.00 30 1015.7
20260502212330 68 163 3.0 9.0 0.00 0.00 0.00 30 1015.8
20260502211818 68 163 3.0 8.0 0.00 0.00 0.00 30 1015.8
20260502211327 68 163 4.0 9.0 0.00 0.00 0.00 31 1015.9
20260502210818 68 163 4.0 9.0 0.00 0.00 0.00 30 1016.0
20260502210330 68 163 2.0 6.0 0.00 0.00 0.00 30 1015.9
20260502205821 68 163 1.0 7.0 0.00 0.00 0.00 31 1015.9
20260502205332 68 163 4.0 9.0 0.00 0.00 0.00 31 1016.0
20260502204841 68 163 4.0 11.0 0.00 0.00 0.00 30 1016.0
20260502204328 68 164 2.0 12.0 0.00 0.00 0.00 30 1016.2
20260502203819 68 163 8.0 12.0 0.00 0.00 0.00 30 1016.1
20260502203328 68 159 3.0 10.0 0.00 0.00 0.00 30 1016.0
20260502202818 68 159 4.0 10.0 0.00 0.00 0.00 30 1016.1
20260502202346 68 167 5.0 9.0 0.00 0.00 0.00 30 1016.0
20260502201816 68 167 4.0 15.0 0.00 0.00 0.00 30 1016.0
20260502201347 68 167 5.0 15.0 0.00 0.00 0.00 29 1016.0
20260502200818 69 171 6.0 12.0 0.00 0.00 0.00 29 1016.2
20260502200328 69 171 8.0 14.0 0.00 0.00 0.00 29 1016.2
20260502195820 69 171 6.0 12.0 0.00 0.00 0.00 29 1016.3
20260502195331 69 171 3.0 12.0 0.00 0.00 0.00 30 1016.2
20260502194842 69 171 4.0 12.0 0.00 0.00 0.00 29 1016.2
20260502194332 69 176 5.0 11.0 0.00 0.00 0.00 29 1016.4
20260502193821 69 175 6.0 11.0 0.00 0.00 0.00 29 1016.4
20260502193312 69 172 8.0 13.0 0.00 0.00 0.00 29 1016.4
20260502192850 69 173 1.0 12.0 0.00 0.00 0.00 28 1016.4
20260502192320 70 171 5.0 13.0 0.00 0.00 0.00 28 1016.5
20260502191830 70 155 3.0 9.0 0.00 0.00 0.00 29 1016.5
20260502191320 69 175 3.0 7.0 0.00 0.00 0.00 28 1016.5
20260502190830 69 175 2.0 12.0 0.00 0.00 0.00 28 1016.6
20260502190319 69 176 9.0 12.0 0.00 0.00 0.00 29 1016.9
20260502185831 69 171 3.0 9.0 0.00 0.00 0.00 30 1016.8
20260502185339 68 172 4.0 13.0 0.00 0.00 0.00 30 1016.8
20260502184830 68 164 6.0 13.0 0.00 0.00 0.00 30 1016.9
20260502184321 68 167 6.0 14.0 0.00 0.00 0.00 30 1017.0
20260502183832 69 116 3.0 11.0 0.00 0.00 0.00 30 1017.0
20260502183343 68 164 4.0 15.0 0.00 0.00 0.00 30 1017.0
20260502182830 68 167 5.0 15.0 0.00 0.00 0.00 30 1017.0
20260502182319 68 163 9.0 15.0 0.00 0.00 0.00 30 1017.1
20260502181825 68 158 7.0 14.0 0.00 0.00 0.00 31 1017.2
20260502181335 68 159 6.0 16.0 0.00 0.00 0.00 30 1017.1
20260502180827 68 152 4.0 16.0 0.00 0.00 0.00 30 1017.1
20260502180337 67 159 3.0 10.0 0.00 0.00 0.00 31 1017.1
20260502170331 66 57 1.0 4.0 0.00 0.00 0.00 33 1017.1
20260502164317 65 58 1.0 6.0 0.00 0.00 0.00 33 1017.1
20260502163832 65 58 2.0 7.0 0.00 0.00 0.00 34 1017.1
20260502163344 64 58 2.0 9.0 0.00 0.00 0.00 35 1017.1
20260502162833 64 57 2.0 9.0 0.00 0.00 0.00 34 1017.2
20260502162320 63 57 3.0 6.0 0.00 0.00 0.00 36 1017.2
20260502161826 62 57 0.0 4.0 0.00 0.00 0.00 35 1017.1
20260502161337 62 57 1.0 4.0 0.00 0.00 0.00 36 1017.2
20260502160823 62 57 1.0 5.0 0.00 0.00 0.00 35 1017.2
20260502160330 61 57 0.0 5.0 0.00 0.00 0.00 36 1017.3
20260502152331 56 57 0.0 2.0 0.00 0.00 0.00 46 1017.3
20260502151823 55 57 0.0 0.0 0.00 0.00 0.00 47 1017.2
20260502151332 54 57 0.0 0.0 0.00 0.00 0.00 48 1017.2
20260502150821 53 57 0.0 0.0 0.00 0.00 0.00 49 1017.2
20260502150334 52 57 0.0 0.0 0.00 0.00 0.00 50 1017.3
20260502130355 43 57 0.0 0.0 0.00 0.00 0.00 53 1016.4
20260502123816 43 57 0.0 0.0 0.00 0.00 0.00 53 1016.1
20260502123353 43 57 0.0 0.0 0.00 0.00 0.00 52 1016.1
20260502122820 43 57 0.0 0.0 0.00 0.00 0.00 52 1016.1
20260502122330 43 57 0.0 0.0 0.00 0.00 0.00 52 1016.3
20260502121820 43 57 0.0 0.0 0.00 0.00 0.00 52 1016.2
20260502121328 43 57 0.0 0.0 0.00 0.00 0.00 51 1016.1
20260502120818 43 57 0.0 0.0 0.00 0.00 0.00 51 1016.0
20260502120329 43 57 0.0 0.0 0.00 0.00 0.00 51 1016.1
20260502115816 44 57 0.0 0.0 0.00 0.00 0.00 51 1016.0
20260502115325 44 57 0.0 0.0 0.00 0.00 0.00 50 1016.0
20260502114815 44 57 0.0 0.0 0.00 0.00 0.00 50 1016.0
20260502114344 44 57 0.0 0.0 0.00 0.00 0.00 49 1015.9
20260502113829 44 57 0.0 0.0 0.00 0.00 0.00 49 1016.0
20260502113319 44 57 0.0 0.0 0.00 0.00 0.00 49 1016.0
20260502112830 45 57 0.0 0.0 0.00 0.00 0.00 48 1016.0
20260502112321 45 57 0.0 0.0 0.00 0.00 0.00 47 1016.1
20260502111831 45 57 0.0 0.0 0.00 0.00 0.00 47 1016.1
20260502111320 45 57 0.0 0.0 0.00 0.00 0.00 46 1016.1
20260502110831 45 57 0.0 0.0 0.00 0.00 0.00 45 1016.0
20260502110342 45 57 0.0 0.0 0.00 0.00 0.00 45 1016.1
20260502105832 45 57 0.0 0.0 0.00 0.00 0.00 44 1016.0
20260502105341 45 57 0.0 0.0 0.00 0.00 0.00 44 1016.1
20260502104828 45 57 0.0 0.0 0.00 0.00 0.00 43 1016.1
20260502104319 46 57 0.0 0.0 0.00 0.00 0.00 43 1015.9
20260502103832 46 57 0.0 0.0 0.00 0.00 0.00 43 1016.1
20260502103321 46 57 0.0 0.0 0.00 0.00 0.00 43 1016.0
20260502102851 46 57 0.0 0.0 0.00 0.00 0.00 42 1016.0
20260502102320 46 57 0.0 0.0 0.00 0.00 0.00 41 1016.0
20260502101831 46 57 0.0 0.0 0.00 0.00 0.00 42 1015.9
20260502101343 46 57 0.0 0.0 0.00 0.00 0.00 42 1015.9
20260502100831 47 57 0.0 0.0 0.00 0.00 0.00 42 1015.9
20260502100341 47 57 0.0 0.0 0.00 0.00 0.00 41 1016.0
20260502091340 48 57 0.0 0.0 0.00 0.00 0.00 37 1016.5
20260502090827 48 57 0.0 0.0 0.00 0.00 0.00 37 1016.6
20260502090320 48 57 0.0 0.0 0.00 0.00 0.00 37 1016.5
20260502071321 52 57 0.0 0.0 0.00 0.00 0.00 30 1017.2
20260502070831 52 57 0.0 0.0 0.00 0.00 0.00 29 1017.3
20260502070320 53 57 0.0 0.0 0.00 0.00 0.00 29 1017.3
20260502065830 53 57 0.0 0.0 0.00 0.00 0.00 29 1017.4
20260502065321 54 57 0.0 0.0 0.00 0.00 0.00 28 1017.3
20260502064834 54 57 0.0 0.0 0.00 0.00 0.00 28 1017.3
20260502064326 54 57 0.0 0.0 0.00 0.00 0.00 28 1017.3
20260502063820 55 57 0.0 0.0 0.00 0.00 0.00 26 1017.2
20260502063326 55 57 0.0 0.0 0.00 0.00 0.00 26 1017.1
20260502062815 56 57 0.0 0.0 0.00 0.00 0.00 26 1017.1
20260502062327 56 57 0.0 0.0 0.00 0.00 0.00 25 1017.1
20260502061818 56 57 0.0 0.0 0.00 0.00 0.00 24 1017.1
20260502061352 56 57 0.0 0.0 0.00 0.00 0.00 23 1017.2
20260502060820 56 57 0.0 0.0 0.00 0.00 0.00 23 1017.1
20260502060330 56 57 0.0 0.0 0.00 0.00 0.00 23 1017.1
20260502055820 57 57 0.0 0.0 0.00 0.00 0.00 24 1017.1
20260502055349 57 57 0.0 0.0 0.00 0.00 0.00 23 1017.1
20260502054819 57 57 0.0 0.0 0.00 0.00 0.00 23 1017.2
20260502054335 57 57 0.0 0.0 0.00 0.00 0.00 22 1017.2
20260502053846 57 57 0.0 0.0 0.00 0.00 0.00 22 1017.1
20260502053336 57 57 0.0 0.0 0.00 0.00 0.00 23 1017.2
20260502052848 57 57 0.0 2.0 0.00 0.00 0.00 22 1017.3
20260502052320 56 57 0.0 0.0 0.00 0.00 0.00 23 1017.3
20260502051828 56 57 0.0 0.0 0.00 0.00 0.00 22 1017.3
20260502051319 56 57 0.0 0.0 0.00 0.00 0.00 22 1017.3
20260502050827 56 57 0.0 0.0 0.00 0.00 0.00 23 1017.2
20260502050337 56 57 0.0 0.0 0.00 0.00 0.00 23 1017.2
20260502045828 56 57 0.0 0.0 0.00 0.00 0.00 23 1017.2
20260502045318 56 57 0.0 0.0 0.00 0.00 0.00 23 1017.2
20260502044828 56 57 0.0 0.0 0.00 0.00 0.00 23 1017.3
20260502044340 56 57 0.0 0.0 0.00 0.00 0.00 23 1017.2
20260502043829 56 57 0.0 0.0 0.00 0.00 0.00 25 1017.2
20260502043321 56 57 0.0 0.0 0.00 0.00 0.00 24 1017.1
20260502042833 57 57 0.0 0.0 0.00 0.00 0.00 24 1017.1
20260502042325 57 57 0.0 0.0 0.00 0.00 0.00 24 1017.0
20260502041840 58 57 0.0 0.0 0.00 0.00 0.00 24 1016.9
20260502041330 58 57 0.0 0.0 0.00 0.00 0.00 23 1016.9
20260502040821 59 57 0.0 0.0 0.00 0.00 0.00 22 1016.8